| time (UTC) | temp F | wind direction | speed MPH | gust MPH | rain 1hr in | rain 24hr in | rain mn in | humidity % | barometer mb |
| 20260903192519 | 77 | 296 | 6.0 | 14.0 | 0.00 | 0.00 | 0.00 | 54 | 1013.5 |
| 20260903192021 | 77 | 267 | 8.0 | 14.0 | 0.00 | 0.00 | 0.00 | 53 | 1013.5 |
| 20260903191019 | 76 | 265 | 8.0 | 13.0 | 0.00 | 0.00 | 0.00 | 57 | 1013.6 |
| 20260903190521 | 77 | 277 | 3.0 | 15.0 | 0.00 | 0.00 | 0.00 | 57 | 1013.7 |
| 20260903185019 | 77 | 254 | 6.0 | 14.0 | 0.00 | 0.00 | 0.00 | 54 | 1013.8 |
| 20260903184018 | 78 | 190 | 8.0 | 13.0 | 0.00 | 0.00 | 0.00 | 56 | 1013.9 |
| 20260903183518 | 75 | 290 | 7.0 | 13.0 | 0.00 | 0.00 | 0.00 | 59 | 1014.1 |
| 20260903183036 | 75 | 182 | 7.0 | 12.0 | 0.00 | 0.00 | 0.00 | 59 | 1014.2 |
| 20260903182519 | 75 | 220 | 6.0 | 12.0 | 0.00 | 0.00 | 0.00 | 59 | 1014.2 |
| 20260903182018 | 75 | 275 | 5.0 | 11.0 | 0.00 | 0.00 | 0.00 | 61 | 1014.2 |
| 20260903180518 | 73 | 276 | 4.0 | 9.0 | 0.00 | 0.00 | 0.00 | 64 | 1014.2 |
| 20260903175519 | 71 | 262 | 5.0 | 10.0 | 0.00 | 0.00 | 0.00 | 65 | 1014.2 |
| 20260903175019 | 72 | 0 | 2.0 | 11.0 | 0.00 | 0.00 | 0.00 | 64 | 1014.3 |
| 20260903174018 | 71 | 250 | 5.0 | 8.0 | 0.00 | 0.00 | 0.00 | 65 | 1014.3 |
| 20260903173519 | 71 | 0 | 2.0 | 7.0 | 0.00 | 0.00 | 0.00 | 66 | 1014.3 |
| 20260903172518 | 70 | 197 | 6.0 | 11.0 | 0.00 | 0.00 | 0.00 | 68 | 1014.4 |
| 20260903172017 | 70 | 244 | 3.0 | 9.0 | 0.00 | 0.00 | 0.00 | 68 | 1014.4 |
| 20260903165523 | 69 | 273 | 5.0 | 9.0 | 0.00 | 0.00 | 0.00 | 69 | 1014.4 |
| 20260903165018 | 69 | 0 | 2.0 | 8.0 | 0.00 | 0.00 | 0.00 | 69 | 1014.5 |
| 20260903164017 | 68 | 239 | 5.0 | 8.0 | 0.00 | 0.00 | 0.00 | 70 | 1014.7 |
| 20260903163516 | 67 | 236 | 2.0 | 7.0 | 0.00 | 0.00 | 0.00 | 72 | 1014.5 |
| 20260903162520 | 66 | 251 | 2.0 | 9.0 | 0.00 | 0.00 | 0.00 | 76 | 1014.5 |
| 20260903162020 | 65 | 235 | 3.0 | 7.0 | 0.00 | 0.00 | 0.00 | 77 | 1014.6 |
| 20260903160518 | 64 | 213 | 2.0 | 4.0 | 0.00 | 0.00 | 0.00 | 79 | 1014.8 |
| 20260903155517 | 63 | 0 | 0.0 | 4.0 | 0.00 | 0.00 | 0.00 | 79 | 1014.8 |
| 20260903155017 | 63 | 155 | 1.0 | 7.0 | 0.00 | 0.00 | 0.00 | 80 | 1014.8 |
| 20260903154018 | 62 | 146 | 1.0 | 5.0 | 0.00 | 0.00 | 0.00 | 82 | 1014.9 |
| 20260903153520 | 62 | 173 | 0.0 | 4.0 | 0.00 | 0.00 | 0.00 | 82 | 1015.0 |
| 20260903152518 | 60 | 0 | 0.0 | 1.0 | 0.00 | 0.00 | 0.00 | 85 | 1015.1 |
| 20260903152021 | 60 | 0 | 0.0 | 1.0 | 0.00 | 0.00 | 0.00 | 86 | 1015.1 |
| 20260903151536 | 59 | 0 | 0.0 | 3.0 | 0.00 | 0.00 | 0.00 | 85 | 1015.1 |
| 20260903151018 | 59 | 0 | 0.0 | 3.0 | 0.00 | 0.00 | 0.00 | 85 | 1015.2 |
| 20260903145518 | 58 | 0 | 0.0 | 3.0 | 0.00 | 0.00 | 0.00 | 87 | 1015.0 |
| 20260903145020 | 58 | 0 | 0.0 | 2.0 | 0.00 | 0.00 | 0.00 | 87 | 1014.9 |
| 20260903144020 | 57 | 0 | 0.0 | 1.0 | 0.00 | 0.00 | 0.00 | 89 | 1015.0 |
| 20260903143521 | 57 | 171 | 0.0 | 2.0 | 0.00 | 0.00 | 0.00 | 89 | 1015.0 |
| 20260903142519 | 56 | 0 | 0.0 | 1.0 | 0.00 | 0.00 | 0.00 | 88 | 1014.9 |
| 20260903142019 | 56 | 0 | 0.0 | 1.0 | 0.00 | 0.00 | 0.00 | 88 | 1014.9 |
| 20260903141021 | 55 | 0 | 0.0 | 1.0 | 0.00 | 0.00 | 0.00 | 87 | 1014.8 |
| 20260903135519 | 55 | 0 | 0.0 | 1.0 | 0.00 | 0.00 | 0.00 | 87 | 1014.8 |
| 20260903135020 | 55 | 0 | 0.0 | 2.0 | 0.00 | 0.00 | 0.00 | 86 | 1014.7 |
| 20260903134021 | 55 | 0 | 0.0 | 3.0 | 0.00 | 0.00 | 0.00 | 86 | 1014.6 |
| 20260903133523 | 55 | 103 | 0.0 | 3.0 | 0.00 | 0.00 | 0.00 | 86 | 1014.6 |
| 20260903132519 | 55 | 105 | 1.0 | 3.0 | 0.00 | 0.00 | 0.00 | 86 | 1014.6 |
| 20260903132015 | 55 | 98 | 0.0 | 3.0 | 0.00 | 0.00 | 0.00 | 86 | 1014.6 |
| 20260903131018 | 56 | 82 | 0.0 | 2.0 | 0.00 | 0.00 | 0.00 | 86 | 1014.7 |
| 20260903130521 | 56 | 0 | 0.0 | 3.0 | 0.00 | 0.00 | 0.00 | 86 | 1014.7 |
| 20260903125518 | 56 | 0 | 0.0 | 3.0 | 0.00 | 0.00 | 0.00 | 86 | 1014.6 |
| 20260903125018 | 56 | 0 | 0.0 | 4.0 | 0.00 | 0.00 | 0.00 | 86 | 1014.7 |
| 20260903124535 | 56 | 0 | 1.0 | 4.0 | 0.00 | 0.00 | 0.00 | 85 | 1014.7 |
| 20260903124017 | 56 | 106 | 1.0 | 3.0 | 0.00 | 0.00 | 0.00 | 85 | 1014.7 |
| 20260903123525 | 56 | 0 | 0.0 | 2.0 | 0.00 | 0.00 | 0.00 | 85 | 1014.7 |
| 20260903122520 | 56 | 0 | 0.0 | 2.0 | 0.00 | 0.00 | 0.00 | 85 | 1014.7 |
| 20260903122018 | 56 | 0 | 0.0 | 2.0 | 0.00 | 0.00 | 0.00 | 84 | 1014.8 |
| 20260903121018 | 57 | 98 | 0.0 | 2.0 | 0.00 | 0.00 | 0.00 | 84 | 1014.7 |
| 20260903120520 | 57 | 0 | 0.0 | 2.0 | 0.00 | 0.00 | 0.00 | 84 | 1014.8 |
| 20260903115518 | 57 | 0 | 0.0 | 1.0 | 0.00 | 0.00 | 0.00 | 85 | 1014.8 |
| 20260903115018 | 57 | 0 | 0.0 | 1.0 | 0.00 | 0.00 | 0.00 | 85 | 1015.0 |
| 20260903114021 | 57 | 0 | 0.0 | 1.0 | 0.00 | 0.00 | 0.00 | 85 | 1015.0 |
| 20260903113521 | 57 | 0 | 0.0 | 2.0 | 0.00 | 0.00 | 0.00 | 84 | 1015.1 |
| 20260903112525 | 57 | 0 | 0.0 | 0.0 | 0.00 | 0.00 | 0.00 | 84 | 1015.1 |
| 20260903112017 | 57 | 0 | 0.0 | 0.0 | 0.00 | 0.00 | 0.00 | 84 | 1015.1 |
| 20260903111018 | 57 | 0 | 0.0 | 0.0 | 0.00 | 0.00 | 0.00 | 84 | 1015.2 |
| 20260903110522 | 57 | 0 | 0.0 | 1.0 | 0.00 | 0.00 | 0.00 | 83 | 1015.3 |
| 20260903105519 | 57 | 0 | 0.0 | 1.0 | 0.00 | 0.00 | 0.00 | 83 | 1015.3 |
| 20260903105019 | 58 | 0 | 0.0 | 1.0 | 0.00 | 0.00 | 0.00 | 83 | 1015.2 |
| 20260903104538 | 58 | 0 | 0.0 | 1.0 | 0.00 | 0.00 | 0.00 | 83 | 1015.3 |
| 20260903104016 | 58 | 0 | 0.0 | 1.0 | 0.00 | 0.00 | 0.00 | 83 | 1015.3 |
| 20260903103517 | 58 | 0 | 0.0 | 2.0 | 0.00 | 0.00 | 0.00 | 83 | 1015.3 |
| 20260903102518 | 58 | 161 | 0.0 | 2.0 | 0.00 | 0.00 | 0.00 | 83 | 1015.3 |
| 20260903102017 | 58 | 148 | 0.0 | 2.0 | 0.00 | 0.00 | 0.00 | 83 | 1015.3 |
| 20260903101016 | 57 | 0 | 0.0 | 3.0 | 0.00 | 0.00 | 0.00 | 83 | 1015.3 |
| 20260903100517 | 57 | 0 | 0.0 | 3.0 | 0.00 | 0.00 | 0.00 | 83 | 1015.2 |
| 20260903095520 | 58 | 0 | 0.0 | 1.0 | 0.00 | 0.00 | 0.00 | 82 | 1015.3 |
| 20260903095017 | 58 | 0 | 0.0 | 1.0 | 0.00 | 0.00 | 0.00 | 82 | 1015.4 |
| 20260903094020 | 58 | 0 | 0.0 | 1.0 | 0.00 | 0.00 | 0.00 | 83 | 1015.4 |
| 20260903093519 | 58 | 0 | 0.0 | 4.0 | 0.00 | 0.00 | 0.00 | 83 | 1015.4 |
| 20260903092522 | 58 | 0 | 2.0 | 5.0 | 0.00 | 0.00 | 0.00 | 82 | 1015.4 |
| 20260903092019 | 58 | 185 | 2.0 | 6.0 | 0.00 | 0.00 | 0.00 | 82 | 1015.4 |
| 20260903091016 | 58 | 174 | 3.0 | 6.0 | 0.00 | 0.00 | 0.00 | 82 | 1015.5 |
| 20260903090518 | 58 | 175 | 4.0 | 6.0 | 0.00 | 0.00 | 0.00 | 82 | 1015.5 |
| 20260903085517 | 58 | 182 | 3.0 | 5.0 | 0.00 | 0.00 | 0.00 | 82 | 1015.6 |
| 20260903085017 | 58 | 179 | 2.0 | 5.0 | 0.00 | 0.00 | 0.00 | 82 | 1015.7 |
| 20260903084018 | 58 | 180 | 3.0 | 5.0 | 0.00 | 0.00 | 0.00 | 81 | 1015.6 |
| 20260903083519 | 59 | 180 | 3.0 | 5.0 | 0.00 | 0.00 | 0.00 | 81 | 1015.6 |
| 20260903082520 | 59 | 163 | 0.0 | 4.0 | 0.00 | 0.00 | 0.00 | 81 | 1015.7 |
| 20260903082017 | 59 | 0 | 0.0 | 5.0 | 0.00 | 0.00 | 0.00 | 80 | 1015.6 |
| 20260903081016 | 59 | 184 | 3.0 | 6.0 | 0.00 | 0.00 | 0.00 | 80 | 1015.6 |
| 20260903080517 | 59 | 182 | 4.0 | 6.0 | 0.00 | 0.00 | 0.00 | 79 | 1015.6 |
| 20260903075523 | 59 | 167 | 1.0 | 4.0 | 0.00 | 0.00 | 0.00 | 79 | 1015.7 |
| 20260903075018 | 59 | 174 | 2.0 | 4.0 | 0.00 | 0.00 | 0.00 | 78 | 1015.7 |
| 20260903074019 | 60 | 0 | 0.0 | 3.0 | 0.00 | 0.00 | 0.00 | 78 | 1015.7 |
| 20260903073518 | 60 | 0 | 0.0 | 2.0 | 0.00 | 0.00 | 0.00 | 78 | 1015.6 |
| 20260903072518 | 60 | 0 | 0.0 | 5.0 | 0.00 | 0.00 | 0.00 | 78 | 1015.6 |
| 20260903072016 | 60 | 0 | 2.0 | 5.0 | 0.00 | 0.00 | 0.00 | 77 | 1015.7 |
| 20260903065518 | 61 | 185 | 2.0 | 5.0 | 0.00 | 0.00 | 0.00 | 76 | 1015.6 |
| 20260903065020 | 61 | 180 | 3.0 | 5.0 | 0.00 | 0.00 | 0.00 | 76 | 1015.6 |
| 20260903064019 | 61 | 207 | 3.0 | 6.0 | 0.00 | 0.00 | 0.00 | 76 | 1015.5 |
| 20260903063519 | 62 | 205 | 3.0 | 7.0 | 0.00 | 0.00 | 0.00 | 75 | 1015.5 |
| 20260903062516 | 62 | 236 | 4.0 | 7.0 | 0.00 | 0.00 | 0.00 | 75 | 1015.4 |
| 20260903062016 | 62 | 227 | 2.0 | 5.0 | 0.00 | 0.00 | 0.00 | 74 | 1015.5 |
| 20260903061020 | 62 | 211 | 2.0 | 4.0 | 0.00 | 0.00 | 0.00 | 73 | 1015.5 |
| 20260903060518 | 63 | 221 | 2.0 | 5.0 | 0.00 | 0.00 | 0.00 | 72 | 1015.5 |
| 20260903055520 | 63 | 221 | 2.0 | 7.0 | 0.00 | 0.00 | 0.00 | 71 | 1015.6 |
| 20260903055017 | 63 | 202 | 3.0 | 7.0 | 0.00 | 0.00 | 0.00 | 70 | 1015.5 |
| 20260903054016 | 64 | 191 | 2.0 | 6.0 | 0.00 | 0.00 | 0.00 | 69 | 1015.6 |
| 20260903053517 | 64 | 213 | 2.0 | 6.0 | 0.00 | 0.00 | 0.00 | 68 | 1015.6 |
| 20260903052518 | 64 | 225 | 4.0 | 8.0 | 0.00 | 0.00 | 0.00 | 67 | 1015.7 |
| 20260903052019 | 64 | 232 | 5.0 | 8.0 | 0.00 | 0.00 | 0.00 | 67 | 1015.6 |
| 20260903051016 | 65 | 236 | 4.0 | 10.0 | 0.00 | 0.00 | 0.00 | 66 | 1015.6 |
| 20260903050519 | 65 | 242 | 5.0 | 10.0 | 0.00 | 0.00 | 0.00 | 65 | 1015.6 |
| 20260903045518 | 66 | 234 | 6.0 | 9.0 | 0.00 | 0.00 | 0.00 | 65 | 1015.6 |
| 20260903045016 | 66 | 252 | 5.0 | 9.0 | 0.00 | 0.00 | 0.00 | 64 | 1015.5 |
| 20260903044019 | 66 | 233 | 4.0 | 9.0 | 0.00 | 0.00 | 0.00 | 65 | 1015.4 |
| 20260903043517 | 66 | 242 | 6.0 | 9.0 | 0.00 | 0.00 | 0.00 | 65 | 1015.3 |
| 20260903042520 | 66 | 227 | 6.0 | 10.0 | 0.00 | 0.00 | 0.00 | 64 | 1015.2 |
| 20260903042019 | 67 | 244 | 6.0 | 8.0 | 0.00 | 0.00 | 0.00 | 64 | 1015.2 |
| 20260903041019 | 66 | 229 | 5.0 | 8.0 | 0.00 | 0.00 | 0.00 | 64 | 1015.2 |
| 20260903040517 | 67 | 235 | 4.0 | 8.0 | 0.00 | 0.00 | 0.00 | 64 | 1015.1 |
| 20260903035516 | 67 | 227 | 4.0 | 8.0 | 0.00 | 0.00 | 0.00 | 63 | 1015.0 |
| 20260903035018 | 67 | 247 | 4.0 | 8.0 | 0.00 | 0.00 | 0.00 | 61 | 1014.8 |
| 20260903032518 | 67 | 254 | 6.0 | 9.0 | 0.00 | 0.00 | 0.00 | 60 | 1014.6 |
| 20260903032020 | 68 | 265 | 4.0 | 8.0 | 0.00 | 0.00 | 0.00 | 60 | 1014.5 |
| 20260903031019 | 68 | 261 | 4.0 | 7.0 | 0.00 | 0.00 | 0.00 | 58 | 1014.4 |
| 20260903030522 | 68 | 265 | 3.0 | 5.0 | 0.00 | 0.00 | 0.00 | 58 | 1014.5 |
| 20260903025522 | 69 | 257 | 2.0 | 7.0 | 0.00 | 0.00 | 0.00 | 57 | 1014.5 |
| 20260903025019 | 69 | 252 | 3.0 | 8.0 | 0.00 | 0.00 | 0.00 | 56 | 1014.5 |
| 20260903024020 | 70 | 259 | 5.0 | 9.0 | 0.00 | 0.00 | 0.00 | 56 | 1014.4 |
| 20260903022518 | 71 | 255 | 8.0 | 12.0 | 0.00 | 0.00 | 0.00 | 55 | 1014.5 |
| 20260903022019 | 72 | 248 | 7.0 | 11.0 | 0.00 | 0.00 | 0.00 | 56 | 1014.5 |
| 20260903021023 | 72 | 257 | 7.0 | 12.0 | 0.00 | 0.00 | 0.00 | 55 | 1014.5 |
| 20260903020520 | 73 | 250 | 8.0 | 12.0 | 0.00 | 0.00 | 0.00 | 55 | 1014.6 |
| 20260903015516 | 73 | 265 | 6.0 | 11.0 | 0.00 | 0.00 | 0.00 | 56 | 1014.6 |
| 20260903015015 | 74 | 284 | 7.0 | 11.0 | 0.00 | 0.00 | 0.00 | 55 | 1014.6 |
| 20260903014022 | 74 | 263 | 8.0 | 15.0 | 0.00 | 0.00 | 0.00 | 55 | 1014.6 |
| 20260903013520 | 74 | 248 | 9.0 | 15.0 | 0.00 | 0.00 | 0.00 | 55 | 1014.7 |
| 20260903012519 | 75 | 258 | 6.0 | 13.0 | 0.00 | 0.00 | 0.00 | 54 | 1014.7 |
| 20260903012020 | 75 | 279 | 7.0 | 13.0 | 0.00 | 0.00 | 0.00 | 54 | 1014.7 |
| 20260903011015 | 76 | 241 | 8.0 | 12.0 | 0.00 | 0.00 | 0.00 | 53 | 1014.7 |
| 20260903010518 | 76 | 284 | 8.0 | 11.0 | 0.00 | 0.00 | 0.00 | 52 | 1014.8 |
| 20260903005019 | 76 | 263 | 6.0 | 11.0 | 0.00 | 0.00 | 0.00 | 53 | 1014.9 |
| 20260903004020 | 76 | 245 | 3.0 | 12.0 | 0.00 | 0.00 | 0.00 | 52 | 1014.8 |
| 20260903003518 | 76 | 247 | 7.0 | 12.0 | 0.00 | 0.00 | 0.00 | 52 | 1014.9 |
| 20260903002519 | 76 | 261 | 4.0 | 13.0 | 0.00 | 0.00 | 0.00 | 54 | 1015.0 |
| 20260903002024 | 76 | 288 | 4.0 | 13.0 | 0.00 | 0.00 | 0.00 | 51 | 1015.0 |
| 20260903001018 | 77 | 265 | 5.0 | 13.0 | 0.00 | 0.00 | 0.00 | 51 | 1015.0 |
| 20260903000516 | 77 | 281 | 4.0 | 13.0 | 0.00 | 0.00 | 0.00 | 51 | 1015.0 |
| 20260902235516 | 78 | 244 | 7.0 | 12.0 | 0.00 | 0.00 | 0.00 | 49 | 1015.2 |
| 20260902235015 | 78 | 253 | 8.0 | 13.0 | 0.00 | 0.00 | 0.00 | 49 | 1015.1 |
| 20260902234018 | 79 | 244 | 7.0 | 14.0 | 0.00 | 0.00 | 0.00 | 49 | 1015.2 |
| 20260902233520 | 79 | 296 | 5.0 | 14.0 | 0.00 | 0.00 | 0.00 | 50 | 1015.2 |
| 20260902232522 | 78 | 296 | 6.0 | 13.0 | 0.00 | 0.00 | 0.00 | 50 | 1015.3 |
| 20260902232021 | 78 | 301 | 6.0 | 14.0 | 0.00 | 0.00 | 0.00 | 50 | 1015.3 |
| 20260902231017 | 78 | 273 | 10.0 | 16.0 | 0.00 | 0.00 | 0.00 | 50 | 1015.3 |
| 20260902230519 | 78 | 245 | 10.0 | 14.0 | 0.00 | 0.00 | 0.00 | 48 | 1015.4 |
| 20260902230039 | 79 | 276 | 8.0 | 14.0 | 0.00 | 0.00 | 0.00 | 48 | 1015.4 |
| 20260902225523 | 79 | 245 | 9.0 | 14.0 | 0.00 | 0.00 | 0.00 | 47 | 1015.3 |
| 20260902225018 | 79 | 229 | 6.0 | 13.0 | 0.00 | 0.00 | 0.00 | 48 | 1015.5 |
| 20260902223520 | 80 | 257 | 7.0 | 14.0 | 0.00 | 0.00 | 0.00 | 46 | 1015.5 |
| 20260902222519 | 79 | 307 | 6.0 | 13.0 | 0.00 | 0.00 | 0.00 | 49 | 1015.4 |
| 20260902222016 | 79 | 306 | 4.0 | 14.0 | 0.00 | 0.00 | 0.00 | 48 | 1015.6 |
| 20260902215521 | 80 | 265 | 9.0 | 15.0 | 0.00 | 0.00 | 0.00 | 46 | 1015.8 |
| 20260902215020 | 79 | 267 | 4.0 | 13.0 | 0.00 | 0.00 | 0.00 | 48 | 1016.0 |
| 20260902214020 | 80 | 263 | 5.0 | 15.0 | 0.00 | 0.00 | 0.00 | 46 | 1016.0 |
| 20260902213523 | 81 | 238 | 10.0 | 15.0 | 0.00 | 0.00 | 0.00 | 44 | 1016.1 |
| 20260902212519 | 79 | 267 | 7.0 | 11.0 | 0.00 | 0.00 | 0.00 | 46 | 1016.1 |
| 20260902212018 | 78 | 261 | 6.0 | 11.0 | 0.00 | 0.00 | 0.00 | 50 | 1016.2 |
| 20260902211022 | 78 | 186 | 3.0 | 16.0 | 0.00 | 0.00 | 0.00 | 47 | 1016.2 |
| 20260902210521 | 79 | 233 | 10.0 | 16.0 | 0.00 | 0.00 | 0.00 | 45 | 1016.2 |
| 20260902205519 | 79 | 263 | 7.0 | 11.0 | 0.00 | 0.00 | 0.00 | 48 | 1016.2 |
| 20260902205020 | 79 | 94 | 2.0 | 11.0 | 0.00 | 0.00 | 0.00 | 49 | 1016.1 |
| 20260902204018 | 79 | 243 | 6.0 | 11.0 | 0.00 | 0.00 | 0.00 | 48 | 1016.3 |
| 20260902203516 | 78 | 210 | 5.0 | 9.0 | 0.00 | 0.00 | 0.00 | 52 | 1016.4 |
| 20260902202518 | 77 | 0 | 0.0 | 9.0 | 0.00 | 0.00 | 0.00 | 52 | 1016.7 |
| 20260902200522 | 78 | 292 | 5.0 | 12.0 | 0.00 | 0.00 | 0.00 | 51 | 1016.8 |
| 20260902195521 | 77 | 244 | 8.0 | 12.0 | 0.00 | 0.00 | 0.00 | 51 | 1017.1 |
| 20260902195016 | 76 | 0 | 0.0 | 12.0 | 0.00 | 0.00 | 0.00 | 52 | 1017.1 |
| 20260902194019 | 77 | 236 | 6.0 | 12.0 | 0.00 | 0.00 | 0.00 | 51 | 1017.1 |
| 20260902193520 | 76 | 209 | 7.0 | 12.0 | 0.00 | 0.00 | 0.00 | 53 | 1017.1 |